Location: Borowce
(50.8255°N, 19.6209°E)
Time: 07:29:36
(UTC+00:00)

Cosmos 2360 Rocket - Pass Details

Date: 19 May 2025
Orbit: 834 x 842 km, 71.0° (Epoch: 16 June)

Event Time Altitude Azimuth Distance (km) Brightness Sun altitude
Rises 21:25:49 0° 332° (NNW) 3,395 7.0 -17.4°
Reaches altitude 10° 21:28:24 10° 339° (NNW) 2,457 5.9 -17.6°
Maximum altitude 21:33:44 42° 50° (NE) 1,179 3.1 -17.8°
Enters shadow 21:37:51 16° 115° (ESE) 2,038 3.8 -18.0°
